Location: Martley
(52.2333°N, 2.3667°W)
Time: 19:45:42
(UTC+00:00)

BREEZE-M DEB (TANK) - Pass Details

Date: 11 December 2019
Orbit: 296 x 14275 km, 49.6° (Epoch: 18 January)

Event Time Altitude Azimuth Distance (km) Brightness Sun altitude
Exits shadow 06:36:10 - 258° (WSW) 3,680 6.3 -13.1°
Reaches altitude 10° 06:36:36 10° 258° (WSW) 3,475 6.2 -13.0°
Maximum altitude 06:43:09 60° 180° (S) 650 3.1 -12.1°
Drops below altitude 10° 06:45:45 10° 98° (E) 1,399 6.1 -11.7°
Sets 06:47:08 0° 94° (E) 2,077 7.1 -11.5°
